User: anonymous   Login
Location: Austin
(30.3000°N, 97.7500°W)
Time: 11:56:03
(UTC-06:00)
Language:

Cosmos 1937 Rocket - Orbit

View from above orbital plane
View from above orbital plane
View from above satellite
View from above satellite

Ground track
Ground track

The orbit data is extracted from the following two-line orbital elements,

1 19039U 88029B   23333.84276447  .00000762  00000-0  25457-3 0  9996
2 19039  74.0472 278.4703 0024607 229.2842 130.6176 14.38998658869724
Epoch (UTC): 29 November 2023 20:13:34
Eccentricity: 0.0024607
inclination: 74.0472°
perigee height: 744 km
apogee height: 779 km
right ascension of ascending node: 278.4703°
argument of perigee: 229.2842°
revolutions per day: 14.38998658
mean anomaly at epoch: 130.6176°
orbit number at epoch: 86972

The dashed part of the orbit path shows where the satellite is in the earth's shadow,  

DLR